GOES 18 [+]

Last updated on Fri Dec 29 2023 00:02:21 GMT+0000 (Coordinated Universal Time)

1 51850U 22021A 23362.54160014 .00000106 00000+0 00000+0 0 9998 2 51850 0.0166 185.9476 0000618 62.3604 266.4082 1.00271793 6767
UTC large
Height (km)
Speed (km/s)
/
Latitude / Longitude
Inclination (degrees)
Orbital Period (minutes)
Azimuth
Elevation
Range (km)
Doppler Factor

Next 0 passes for location: London (51.5072 / 0.1276)

Sorry there are no passes over London.